Location: Newark
(0.5300°S, 127.4800°E)
Time: 10:02:54
(UTC+00:00)

Vanguard 3 - Pass Details

Date: 27 September 2019
Orbit: 508 x 3262 km, 33.3° (Epoch: 18 October)

Event Time Altitude Azimuth Distance (km) Brightness Sun altitude
Rises 16:51:15 0° 219° (SW) 2,720 - -67.4°
Reaches altitude 10° 16:53:17 10° 210° (SSW) 1,947 - -66.9°
Maximum altitude 16:57:21 39° 140° (SE) 1,130 - -65.8°
Drops below altitude 10° 17:03:31 10° 72° (ENE) 2,964 - -64.3°
Exits shadow 17:06:23 - 67° (ENE) 4,036 11.0 -63.6°
Sets 17:07:19 0° 65° (ENE) 4,381 11.2 -63.4°
